Weather History for KPSX - February, 2013

Change the Weather History Date:

Tuesday, February 5, 2013

  Actual Average Record
Temperature  
Mean Temperature 68 °F -  
Max Temperature 77 °F 61 °F 80 °F (1957)
Min Temperature 59 °F 44 °F 27 °F (1989)
Cooling Degree Days 3    
Growing Degree Days 18 (Base 50)    
Moisture  
Dew Point 63 °F    
Average Humidity 89    
Maximum Humidity 100    
Minimum Humidity 62    
Precipitation  
Precipitation 0.00 in - - ()
Sea Level Pressure  
Sea Level Pressure 29.92 in    
Wind  
Wind Speed 4 mph (South)    
Max Wind Speed 12 mph    
Max Gust Speed -    
Visibility 5 miles    
Events Fog    
Averages and records for this station are not official NWS values.
T = Trace of Precipitation, MM = Missing Value Source: NWS Daily Summary

Daily Weather History Graph

Daily Weather History Graph

Search for Another Location

Airport or City:

Trip Planner

Search our weather history database for the weather conditions in past years. The results will help you decide how hot, cold, wet, or windy it might be!

Date:

Astronomy

Feb. 05, 2013 Rise Set
Actual Time 7:10 AM CST 6:07 PM CST
Civil Twilight 6:46 AM CST 6:32 PM CST
Nautical Twilight 6:18 AM CST 7:00 PM CST
Astronomical Twilight 5:50 AM CST 7:28 PM CST
Moon 2:45 AM CST 1:35 PM CST
Length of Visible Light 11h 46m
Length of Day
10h 57m
Waning Crescent, 26% of the Moon is Illuminated
Feb 5
Waning Crescent
Feb 10
New
Feb 17
First Quarter
Feb 25
Full
Mar 4
Last Quarter

Hourly Weather History & Observations

Time (CST) Temp. Dew Point Humidity Pressure Visibility Wind Dir Wind Speed Gust Speed Precip Events Conditions
12:53 AM 63.0 °F 60.1 °F 90% 29.88 in 0.2 mi SSE 4.6 mph - N/A Fog Fog
1:36 AM 64.4 °F 62.6 °F 94% 29.88 in 1.0 mi South 4.6 mph - N/A   Mist
1:53 AM 63.0 °F 61.0 °F 93% 29.88 in 0.5 mi South 5.8 mph - N/A Fog Fog
2:02 AM 62.6 °F 60.8 °F 94% 29.88 in 0.2 mi South 5.8 mph - N/A Fog Fog
2:42 AM 60.8 °F 60.8 °F 100% 29.87 in 0.2 mi SSE 3.5 mph - N/A Fog Fog
3:44 AM 64.4 °F 62.6 °F 94% 29.87 in 0.5 mi South 4.6 mph - N/A Fog Fog
3:53 AM 63.0 °F 61.0 °F 93% 29.88 in 0.5 mi South 4.6 mph - N/A Fog Fog
4:11 AM 62.6 °F 62.6 °F 100% 29.88 in 0.5 mi South 4.6 mph - N/A Fog Fog
4:26 AM 64.4 °F 62.6 °F 94% 29.88 in 2.0 mi South 3.5 mph - N/A   Mostly Cloudy
4:34 AM 64.4 °F 62.6 °F 94% 29.88 in 1.8 mi South 3.5 mph - N/A   Scattered Clouds
4:45 AM 62.6 °F 60.8 °F 94% 29.88 in 0.8 mi Calm Calm - N/A   Mist
4:53 AM 62.1 °F 60.1 °F 93% 29.88 in 0.5 mi Calm Calm - N/A Fog Fog
5:53 AM 60.1 °F 59.0 °F 96% 29.90 in 0.5 mi Calm Calm - N/A Fog Fog
6:39 AM 60.8 °F 57.2 °F 88% 29.91 in 0.5 mi South 3.5 mph - N/A Fog Fog
6:53 AM 59.0 °F 57.9 °F 96% 29.91 in 0.5 mi Calm Calm - N/A Fog Fog
7:06 AM 60.8 °F 57.2 °F 88% 29.91 in 0.2 mi South 3.5 mph - N/A Fog Fog
7:53 AM 62.6 °F 60.8 °F 94% 29.93 in 0.2 mi South 3.5 mph - N/A Fog Fog
8:06 AM 64.4 °F 62.6 °F 94% 29.93 in 2.0 mi South 3.5 mph - N/A   Mostly Cloudy
8:08 AM 64.4 °F 64.4 °F 100% 29.93 in 3.0 mi Calm Calm - N/A   Scattered Clouds
8:32 AM 66.2 °F 64.4 °F 94% 29.94 in 7.0 mi SSW 4.6 mph - N/A   Mostly Cloudy
8:42 AM 66.2 °F 64.4 °F 94% 29.94 in 7.0 mi South 5.8 mph - N/A   Overcast
8:53 AM 66.9 °F 64.9 °F 93% 29.95 in 8.0 mi SSW 4.6 mph - N/A   Overcast
9:00 AM 66.2 °F 66.2 °F 100% 29.95 in 8.0 mi SSW 3.5 mph - N/A   Overcast
9:28 AM 68.0 °F 66.2 °F 94% 29.96 in 9.0 mi SSW 3.5 mph - N/A   Overcast
9:53 AM 70.0 °F 66.0 °F 87% 29.97 in 10.0 mi Variable 4.6 mph - N/A   Overcast
10:53 AM 70.0 °F 66.0 °F 87% 29.99 in 10.0 mi SW 3.5 mph - N/A   Overcast
11:06 AM 71.6 °F 66.2 °F 83% 29.98 in 10.0 mi WSW 6.9 mph - N/A   Overcast
11:53 AM 72.0 °F 64.9 °F 78% 29.97 in 10.0 mi NW 5.8 mph - N/A   Overcast
12:53 PM 75.9 °F 64.9 °F 69% 29.94 in 10.0 mi NNW 3.5 mph - N/A   Overcast
1:15 PM 75.2 °F 64.4 °F 69% 29.93 in 7.0 mi Calm Calm - N/A   Scattered Clouds
2:53 PM 77.0 °F 63.0 °F 62% 29.90 in 10.0 mi SW 4.6 mph - N/A   Clear
3:53 PM 75.0 °F 64.0 °F 69% 29.89 in 10.0 mi South 8.1 mph - N/A   Clear
4:53 PM 73.0 °F 64.9 °F 76% 29.90 in 10.0 mi SE 11.5 mph - N/A   Clear
5:53 PM 70.0 °F 64.9 °F 84% 29.90 in 10.0 mi SSE 10.4 mph - N/A   Clear
6:53 PM 69.1 °F 64.9 °F 87% 29.91 in 10.0 mi SSE 6.9 mph - N/A   Clear
7:53 PM 68.0 °F 64.0 °F 87% 29.94 in 10.0 mi SE 5.8 mph - N/A   Clear
8:53 PM 66.9 °F 64.9 °F 93% 29.95 in 9.0 mi ESE 5.8 mph - N/A   Clear
9:53 PM 68.0 °F 64.4 °F 88% 29.96 in 9.0 mi SE 6.9 mph - N/A   Clear
10:53 PM 69.1 °F 66.0 °F 90% 29.96 in 9.0 mi East 6.9 mph - N/A   Clear
11:15 PM 68.0 °F 66.2 °F 94% 29.96 in 7.0 mi ESE 8.1 mph - N/A   Scattered Clouds
11:29 PM 68.0 °F 66.2 °F 94% 29.96 in 7.0 mi East 6.9 mph - N/A   Mostly Cloudy
11:53 PM 68.0 °F 64.9 °F 90% 29.96 in 5.0 mi East 6.9 mph - N/A   Overcast